Tracking 19832 objects as of 25-Aug-2019
HD Live streaming from Space Station
objects crossing your sky now

THORAD DELTA 1 DEB

Track THORAD DELTA 1 DEB now!
10-day predictions


NORAD ID: 8172
Int'l Code: 1974-089AN
Perigee: 1,410.0 km
Apogee: 1,492.7 km
Inclination: 101.8 °
Period: 114.8 minutes
Semi major axis: 7822 km
RCS: 0.2202 m2 (medium)
Launch date: November 15, 1974
Source: United States (US)
Launch site: AIR FORCE WESTERN TEST RANGE (AFWTR)

Note: This is SATELLITE DEBRIS
aabbcc
Your satellite tracking list
Your tracking list is empty




NASA's NSSDC Master Catalog

Two Line Element Set (TLE):
1  8172U 74089AN  19236.47415519 -.00000028  00000-0  10405-3 0  9997
2  8172 101.7624 201.1345 0052851 187.0590 286.4376 12.54861614 50827
Source of the keplerian elements: AFSPC